Back to catalog

BREEZE-M DEB

AliveUNKNOWN
NORAD 38922·DEBRIS·🇷🇺 Russia

Launched Aug 6, 2012 from Baikonur Cosmodrome

Loading…

Next Passes (next 24 hours)

TLE

FreshSource: Space-Track

Epoch: Sep 14, 2026, 13:50 UTC

1 38922U 12044BF  26257.57676190  .00023891  50468-5  37037-3 0  9992
2 38922  50.0181  31.7631 1380191 317.4786  32.6828 12.86071046575855

Track BREEZE-M DEB in real time with AllMySat

Download on the App Store